Flag for U.S.A. Weather past 2 weeks in Syracuse, New York, U.S.A.

Now
73 °F

Broken clouds.


Feels Like: 77 °F
Forecast: 57 / 74 °F
Wind: 8 mph from West

Location: Syracuse Hancock International Airport

Current Time: Jul 31, 2014 at 1:51:08 PM

Latest Report: Jul 31, 2014 at 12:54 PM


Visibility: 10 mi

Pressure: 30.01 "Hg

Humidity: 55%

Dew point: 56 °F

Location of SyracuseLocation

Historic Weather in Syracuse — Graph

°F

Syracuse temperature yesterday

Maximum temperature yesterday: 77 °F (at 2:54 PM)
Minimum temperature yesterday: 53 °F (at 4:54 AM)
Average temperature yesterday: 64 °F

Past Weeks' High & Low Weather Summary

 TemperatureHumidityPressure
High88 °F (Jul 23, 11:54 AM)100% (Jul 29, 12:54 AM)30.23 "Hg (Jul 29, 12:54 AM)
Low53 °F (Jul 29, 4:54 AM)36% (Jul 25, 1:54 PM)29.52 "Hg (Jul 28, 6:54 AM)
Average69 °F70%29.96 "Hg
* Reported Jul 16 12:54 PM — Jul 31 12:54 PM, Syracuse, Weather by CustomWeather, © 2014

Note: Actual official high and low records may vary slightly from our data, if they occured in-between our weather recording intervals... More about our weather records

Advertising

Syracuse weather history for previous 24 hours

 ConditionsComfort  
Time TempWeatherWind HumidityBarometerVisibility
12:54 PM
Jul 31
73 °FBroken clouds.8 mph55%30.01 "Hg10 mi
11:54 AM70 °FBroken clouds.5 mph64%30.02 "Hg10 mi
10:54 AM68 °FBroken clouds.8 mph76%30.02 "Hg10 mi
9:54 AM63 °FBroken clouds.7 mph87%30.01 "Hg10 mi
8:54 AM59 °FThunderstorms. Partly sunny.5 mph96%30.01 "Hg9 mi
7:59 AM59 °FThunderstorms. Fog.7 mph94%30.02 "Hg2 mi
6:54 AM57 °FBroken clouds.5 mph96%29.99 "Hg10 mi
5:54 AM56 °FPartly cloudy.5 mph93%29.99 "Hg10 mi
4:54 AM56 °FPassing clouds.3 mph97%29.99 "Hg10 mi
3:54 AM56 °FPassing clouds.3 mph97%29.98 "Hg9 mi
2:54 AM57 °FPassing clouds.5 mph93%29.97 "Hg10 mi
1:54 AM57 °FPassing clouds.No wind93%29.99 "Hg10 mi
12:54 AM59 °FPassing clouds.3 mph90%29.99 "Hg10 mi
11:54 PM
Jul 30
59 °FPassing clouds.3 mph93%29.99 "Hg10 mi
10:54 PM61 °FOvercast.5 mph90%29.99 "Hg10 mi
9:54 PM61 °FMostly cloudy.No wind87%29.99 "Hg10 mi
8:54 PM61 °FMore clouds than sun.10 mph87%29.98 "Hg10 mi
7:54 PM62 °FLight rain. Overcast.10 mph90%29.98 "Hg10 mi
6:54 PM62 °FThunderstorms. Fog.9 mph86%29.98 "Hg5 mi
5:54 PM64 °FThunderstorms. Mostly cloudy.9 mph75%29.97 "Hg10 mi
4:54 PM74 °FCloudy.6 mph52%29.94 "Hg10 mi
3:54 PM77 °FBroken clouds.8 mph44%29.93 "Hg10 mi
2:54 PM77 °FScattered clouds.7 mph44%29.93 "Hg10 mi
1:54 PM76 °FBroken clouds.9 mph47%29.95 "Hg10 mi
Weather by CustomWeather, © 2014

See weather overviewHow to use our weather pages